Simultaneous Nadir Overpasses (SNOs) Predictions

Prediction of SNOs between LANDSAT-8 and METOP-A Satellite Orbit:

Table of predicted SNOs for the next 14.0 days since TLE Epoch: 7/30/2016
Index Date (LANDSAT-8) Time (LANDSAT-8) Lat,Lon (LANDSAT-8) SZA (LANDSAT-8 ) Date (METOP-A) Time (METOP-A) Lat,Lon (METOP-A) SZA (METOP-A ) Distance(km) Time Diff (sec)
1 08/01/2016 06:41:56 -81.19, -59.40 114.62 08/01/2016 06:41:40 -81.19, -59.39 114.63 0.31 16
2 08/01/2016 07:31:22 81.20, 108.35 65.41 08/01/2016 07:32:19 81.20, 108.38 65.44 0.81 57
3 08/04/2016 02:16:12 -81.18, 6.92 113.90 08/04/2016 02:16:02 -81.18, 6.74 113.93 2.97 10
4 08/04/2016 03:05:37 81.21, 175.01 66.18 08/04/2016 03:06:40 81.20, 174.87 66.19 2.41 63
5 08/06/2016 21:50:27 -81.20, 73.58 113.09 08/06/2016 21:50:22 -81.19, 73.63 113.09 0.83 5
6 08/06/2016 22:39:53 81.20,-118.72 66.93 08/06/2016 22:41:01 81.20,-118.64 66.97 1.46 68
7 08/09/2016 16:35:16 81.16, -28.16 67.63 08/09/2016 16:34:03 81.16, -28.19 67.60 0.65 73
8 08/09/2016 17:24:42 -81.19, 139.86 112.31 08/09/2016 17:24:43 -81.18, 139.74 112.32 2.01 1
9 08/09/2016 18:14:02 81.31, -50.22 68.04 08/09/2016 18:15:16 81.25, -50.24 68.03 6.76 74
10 08/12/2016 12:09:31 81.17, 38.44 68.50 08/12/2016 12:08:24 81.17, 38.27 68.45 2.85 67




NCC Satellite Simultaneous Nadir Overpasses (SNOs) Prediction Service
